CAPE
569 572 229 451 861 1067 878 828 771 1252 1284 1112 1247 1166 1293 1315 1280 1586 835 801 926 724
992 339 268 414 837 843 319 480 1089 1144 1241 1169 1034 1223 1426 1185 1084 931 1365 863 1289 1069
1220 1104 1235 1460 1311 903 767 448 37 578 1085 1342 1317 1506 1099 981 1348 1474 1287 1097 876 1300
1201 1246 1143 1027 1041 909 667 467 0 381 700 968 1461 1238 1392 1193 1327 1228 1447 1337 1524 1307
1237 1287 1088 963 1660 961 905 695 429 48 0 657 1309 1242 1088 980 823 1112 989 1128 1300 1154
1208 1402 1195 1301 1417 1583 1297 1018 804 306 809 989 1044 1367 1282 1416 1336 1255 1374 1457 1377 1309
467 871 1025 1382 1810 1988 1703 1407 1400 1334 1361 1353 1378 1112 1208 1112 1185 1452 1218 1447 1506 1661
123 150 386 815 1164 1482 1829 1751 1477 1473 1651 1736 1512 1309 1493 1453 1243 1413 1174 923 1438 1866
96 52 24 79 343 1024 1148 1201 1553 1557 1357 1426 1856 1608 1404 1321 1282 1627 1216 1068 1054 1076
0 0 0 0 24 152 339 808 1000 1165 1309 1614 1632 1571 1219 550 369 1310 1599 1772 1480 1230
0 0 0 0 0 0 4 131 277 732 1062 1263 1371 1422 1485 1001 777 847 703 545 932 1344
0 0 0 0 0 0 0 0 9 25 120 481 1067 1161 999 792 912 1048 1099 1030 906 775
0 0 0 0 0 0 0 0 0 0 0 0 150 509 719 550 655 988 1060 1254 1289 1107
0 0 0 0 0 0 0 0 0 0 0 0 0 0 104 253 289 588 738 843 999 1278
CIN
-78 -79 -84 -91 -47 -22 -20 -38 -37 -16 -16 -25 -20 -19 -22 -23 -28 -35 -60 -49 -46 -73
-34 -98 -85 -97 -46 -32 -78 -62 -36 -30 -12 -18 -30 -25 -13 -18 -25 -42 -40 -52 -48 -60
-23 -28 -33 -24 -9 -31 -57 -107 -111 -101 -28 -8 -9 -7 -17 -22 -17 -22 -32 -41 -56 -55
-19 -19 -21 -26 -19 -31 -70 -115 0 -117 -73 -25 -6 -11 -12 -14 -13 -18 -20 -22 -22 -33
-20 -15 -23 -38 -13 -29 -38 -61 -82 -118 -6 -57 -33 -22 -21 -23 -26 -27 -23 -19 -15 -17
-15 -10 -16 -27 -28 -22 -29 -54 -66 -112 -33 -43 -47 -17 -24 -20 -17 -18 -24 -15 -11 -14
-108 -62 -9 -11 -16 -14 -24 -23 -30 -36 -34 -22 -16 -22 -30 -25 -27 -14 -13 -10 -11 -7
-193 -205 -141 -30 -9 -9 -7 -7 -17 -21 -16 -15 -16 -20 -15 -22 -27 -23 -22 -25 -18 -6
-230 -154 -209 -221 -147 -42 -14 -17 -10 -3 -9 -13 -4 -7 -16 -13 -14 -13 -21 -27 -29 -23
0 0 -67 0 -264 -171 -133 -76 -41 -10 -9 -5 -9 -9 -18 -50 -66 -15 -12 -14 -10 -23
0 0 0 0 0 0 -54 -191 -138 -60 -22 -5 -9 -16 -20 -36 -53 -44 -57 -65 -32 -16
0 0 0 0 0 0 0 0 -284 -254 -170 -86 -20 -13 -32 -68 -50 -39 -42 -50 -48 -54
0 0 0 0 0 0 0 0 0 0 0 0 -153 -74 -62 -73 -53 -25 -31 -31 -32 -43
0 0 0 0 0 0 0 0 0 0 0 0 0 -65 -117 -75 -86 -32 -23 -16 -11 -9
Wind_Speed
5 11 24 23 22 17 19 21 21 23 22 23 24 23 23 21 23 21 20 18 17 16
3 9 24 22 21 19 15 15 15 21 20 23 23 23 23 22 21 22 22 22 20 20
2 12 28 26 15 12 17 16 20 16 20 24 22 23 23 22 21 22 22 22 22 22
3 5 31 28 21 10 16 21 19 16 18 22 20 15 22 23 21 22 23 24 23 23
8 6 6 28 30 6 11 17 20 22 21 19 21 12 20 22 23 22 23 23 24 24
25 10 5 11 27 15 0 9 19 22 22 23 21 7 18 20 23 18 24 24 24 24
22 24 27 28 16 17 15 18 12 4 22 7 11 22 19 20 23 25 26 26 26 26
18 17 20 21 27 25 22 19 21 23 24 23 5 14 22 18 27 25 26 28 28 28
19 20 19 20 21 21 25 27 25 24 25 26 24 24 29 26 20 19 16 22 28 30
15 18 19 21 21 19 21 22 24 27 28 29 28 29 31 30 31 33 24 10 5 11
17 17 17 18 19 19 20 23 23 24 26 28 29 30 32 33 32 33 34 33 31 25
20 20 20 20 21 22 23 23 25 25 26 27 28 29 31 32 31 34 37 36 35 35
21 21 23 22 22 23 23 24 26 27 27 29 29 29 30 30 32 35 34 34 35 36
24 24 25 24 24 24 25 26 27 28 27 27 29 30 31 32 32 33 35 36 36 33
Wind_Direction
63 89 147 146 146 115 128 140 198 159 156 167 163 172 191 207 206 216 220 231 229 233
91 112 161 157 159 141 107 111 224 152 151 170 176 182 184 198 214 220 214 217 231 230
161 144 191 210 141 114 137 131 158 124 158 177 170 177 187 204 212 210 208 223 233 240
248 263 217 229 249 106 127 165 136 135 136 164 151 125 173 197 223 208 198 212 234 242
255 260 163 189 210 116 127 149 159 169 161 149 166 111 164 191 196 218 209 216 223 231
254 256 217 163 190 269 224 141 163 170 171 185 176 89 162 178 204 172 215 211 224 230
259 257 255 253 267 268 273 271 279 289 218 140 145 187 176 185 204 225 240 252 249 242
272 279 272 270 260 262 267 273 271 266 265 267 282 170 191 181 223 207 219 238 248 259
282 283 281 278 274 270 265 265 268 272 271 269 273 276 257 210 195 192 192 208 230 246
298 289 290 282 281 282 276 276 274 271 271 271 274 272 266 269 265 249 228 212 209 304
336 324 323 292 290 291 290 282 281 280 278 275 275 276 274 274 274 273 270 275 281 291
329 323 320 320 309 295 296 290 286 285 284 284 283 282 281 281 282 279 274 276 279 281
322 317 316 313 307 307 308 301 290 287 290 286 286 288 289 290 287 283 286 286 285 283
318 313 312 311 310 312 305 299 298 290 293 293 292 292 292 291 290 289 288 286 286 291